Location: Nelson
(41.2830°S, 173.2830°E)
Time: 19:36:39
(UTC+12:00)

Cosmos 1486 Rocket - Pass Details

Date: 14 May 2021
Orbit: 759 x 783 km, 74.1° (Epoch: 20 June)

Event Time Altitude Azimuth Distance (km) Brightness Sun altitude
Rises 17:55:52 0° 202° (SSW) 3,269 7.3 -7.3°
Reaches altitude 10° 17:58:16 10° 203° (SSW) 2,339 6.6 -7.7°
Maximum altitude 18:03:34 75° 287° (WNW) 809 4.3 -8.7°
Drops below altitude 10° 18:08:51 10° 11° (NNE) 2,325 6.6 -9.6°
Sets 18:11:13 0° 13° (NNE) 3,248 7.3 -10.0°
